Weather History for Bend, OR

Change the Weather History Date:

Monday, April 22, 2013

  Actual Average (KRDM) Record (KRDM)
Temperature  
Mean Temperature 42 °F 45 °F  
Max Temperature 53 °F 61 °F 86 °F (2012)
Min Temperature 32 °F 30 °F 15 °F (1972)
Degree Days  
Heating Degree Days 22 20  
Month to date heating degree days 471  
Since 1 July heating degree days 5922  
Cooling Degree Days 0 0  
Month to date cooling degree days 0  
Year to date cooling degree days 0  
Moisture  
Dew Point 11 °F    
Average Humidity 34    
Maximum Humidity 70    
Minimum Humidity 11    
Precipitation  
Precipitation 0.00 in 0.03 in 0.26 in (2005)
Month to date precipitation 0.52  
Year to date precipitation 2.80  
Sea Level Pressure  
Sea Level Pressure 30.33 in    
Wind  
Wind Speed 5 mph (North)    
Max Wind Speed 15 mph    
Max Gust Speed 22 mph    
Visibility 10 miles    
Events      
T = Trace of Precipitation, MM = Missing Value Source: NWS Daily Summary

Daily Weather History Graph

Daily Weather History Graph

Search for Another Location

Airport:

Trip Planner

Search our weather history database for the weather conditions in past years. The results will help you decide how hot, cold, wet, or windy it might be!

Date:

Astronomy

Apr. 22, 2013 Rise Set
Actual Time 6:09 AM PDT 7:57 PM PDT
Civil Twilight 5:38 AM PDT 8:28 PM PDT
Nautical Twilight 5:01 AM PDT 9:06 PM PDT
Astronomical Twilight 4:20 AM PDT 9:47 PM PDT
Moon 4:46 PM PDT (4/22) 4:13 AM PDT (4/22)
Length of Visible Light 14h 50m
Length of Day
13h 48m
Waxing Gibbous, 88% of the Moon is Illuminated
Apr 22
Waxing Gibbous
Apr 25
Full
May 2
Last Quarter
May 9
New
May 17
First Quarter

Hourly Weather History & Observations

Time (PDT) Temp. Windchill Dew Point Humidity Pressure Visibility Wind Dir Wind Speed Gust Speed Precip Events Conditions
12:15 AM 37.4 °F - 28.4 °F 70% 30.22 in 10.0 mi Calm Calm - N/A   Mostly Cloudy
12:35 AM 39.2 °F - 28.4 °F 65% 30.23 in 10.0 mi Calm Calm - N/A   Overcast
12:55 AM 39.2 °F - 28.4 °F 65% 30.23 in 10.0 mi Calm Calm - N/A   Overcast
1:15 AM 41.0 °F - 28.4 °F 61% 30.24 in 10.0 mi Calm Calm - N/A   Overcast
1:35 AM 41.0 °F 39.0 °F 26.6 °F 57% 30.25 in 10.0 mi NNE 3.5 mph - N/A   Overcast
1:55 AM 39.2 °F 34.2 °F 26.6 °F 61% 30.25 in 10.0 mi North 6.9 mph - N/A   Overcast
2:15 AM 39.2 °F 34.2 °F 24.8 °F 56% 30.25 in 10.0 mi North 6.9 mph - N/A   Overcast
2:55 AM 39.2 °F - 26.6 °F 61% 30.26 in 10.0 mi Calm Calm - N/A   Overcast
3:15 AM 39.2 °F - 26.6 °F 61% 30.26 in 10.0 mi Calm Calm - N/A   Mostly Cloudy
3:35 AM 39.2 °F 37.0 °F 26.6 °F 61% 30.26 in 10.0 mi North 3.5 mph - N/A   Mostly Cloudy
3:55 AM 37.4 °F 33.8 °F 26.6 °F 65% 30.27 in 10.0 mi North 4.6 mph - N/A   Mostly Cloudy
4:15 AM 37.4 °F - 26.6 °F 65% 30.27 in 10.0 mi Calm Calm - N/A   Mostly Cloudy
4:35 AM 37.4 °F 33.8 °F 24.8 °F 60% 30.28 in 10.0 mi NW 4.6 mph - N/A   Overcast
4:55 AM 37.4 °F 34.9 °F 24.8 °F 60% 30.29 in 10.0 mi NNW 3.5 mph - N/A   Overcast
5:15 AM 37.4 °F 32.8 °F 24.8 °F 60% 30.29 in 10.0 mi NW 5.8 mph - N/A   Overcast
5:35 AM 37.4 °F 34.9 °F 26.6 °F 65% 30.30 in 10.0 mi NNW 3.5 mph - N/A   Mostly Cloudy
5:55 AM 37.4 °F 32.1 °F 26.6 °F 65% 30.31 in 10.0 mi NNW 6.9 mph - N/A   Mostly Cloudy
6:15 AM 35.6 °F 32.8 °F 26.6 °F 70% 30.32 in 10.0 mi North 3.5 mph - N/A   Mostly Cloudy
6:35 AM 35.6 °F 29.9 °F 26.6 °F 70% 30.33 in 10.0 mi NNW 6.9 mph - N/A   Mostly Cloudy
6:55 AM 35.6 °F 29.9 °F 26.6 °F 70% 30.34 in 10.0 mi NNW 6.9 mph - N/A   Scattered Clouds
7:15 AM 35.6 °F 29.9 °F 26.6 °F 70% 30.34 in 10.0 mi NNW 6.9 mph - N/A   Partly Cloudy
7:35 AM 37.4 °F 31.4 °F 26.6 °F 65% 30.35 in 10.0 mi North 8.1 mph - N/A   Mostly Cloudy
7:55 AM 37.4 °F 32.1 °F 24.8 °F 60% 30.36 in 10.0 mi North 6.9 mph - N/A   Scattered Clouds
8:15 AM 39.2 °F 33.6 °F 24.8 °F 56% 30.36 in 10.0 mi North 8.1 mph - N/A   Partly Cloudy
8:35 AM 39.2 °F 33.6 °F 23.0 °F 52% 30.37 in 10.0 mi North 8.1 mph - N/A   Clear
8:55 AM 39.2 °F 33.6 °F 19.4 °F 45% 30.37 in 10.0 mi NE 8.1 mph - N/A   Clear
9:15 AM 41.0 °F 35.8 °F 21.2 °F 45% 30.37 in 10.0 mi North 8.1 mph - N/A   Partly Cloudy
9:35 AM 41.0 °F 36.4 °F 14.0 °F 33% 30.37 in 10.0 mi North 6.9 mph 21.9 mph N/A   Clear
9:55 AM 42.8 °F 37.5 °F 10.4 °F 27% 30.36 in 10.0 mi NNE 9.2 mph - N/A   Clear
10:15 AM 42.8 °F 36.6 °F 8.6 °F 25% 30.37 in 10.0 mi NE 11.5 mph - N/A   Clear
10:35 AM 42.8 °F 37.5 °F 8.6 °F 25% 30.37 in 10.0 mi NNE 9.2 mph - N/A   Partly Cloudy
10:55 AM 44.6 °F 40.7 °F 5.0 °F 20% 30.38 in 10.0 mi North 6.9 mph - N/A   Partly Cloudy
11:15 AM 46.4 °F 41.5 °F 1.4 °F 16% 30.38 in 10.0 mi NNE 10.4 mph - N/A   Clear
11:35 AM 46.4 °F 44.3 °F 1.4 °F 16% 30.37 in 10.0 mi ENE 4.6 mph - N/A   Scattered Clouds
11:55 AM 46.4 °F 40.7 °F 1.4 °F 16% 30.37 in 10.0 mi NE 12.7 mph 16.1 mph N/A   Partly Cloudy
12:15 PM 46.4 °F 41.5 °F 1.4 °F 16% 30.36 in 10.0 mi NNE 10.4 mph - N/A   Clear
12:35 PM 46.4 °F 41.1 °F 5.0 °F 18% 30.36 in 10.0 mi NNE 11.5 mph - N/A   Partly Cloudy
12:55 PM 48.2 °F - 3.2 °F 16% 30.36 in 10.0 mi North 4.6 mph - N/A   Partly Cloudy
1:15 PM 48.2 °F - 1.4 °F 15% 30.35 in 10.0 mi East 4.6 mph - N/A   Partly Cloudy
1:35 PM 50.0 °F - -0.4 °F 13% 30.34 in 10.0 mi North 8.1 mph 16.1 mph N/A   Clear
1:55 PM 48.2 °F - 5.0 °F 17% 30.34 in 10.0 mi North 5.8 mph - N/A   Partly Cloudy
2:15 PM 50.0 °F - 1.4 °F 14% 30.34 in 10.0 mi North 12.7 mph - N/A   Partly Cloudy
2:35 PM 51.8 °F - -0.4 °F 12% 30.34 in 10.0 mi NNW 6.9 mph - N/A   Clear
2:55 PM 51.8 °F - -2.2 °F 11% 30.33 in 10.0 mi NE 9.2 mph - N/A   Clear
3:15 PM 51.8 °F - -2.2 °F 11% 30.32 in 10.0 mi North 8.1 mph 16.1 mph N/A   Clear
3:35 PM 51.8 °F - -0.4 °F 12% 30.32 in 10.0 mi North 10.4 mph - N/A   Clear
3:55 PM 53.6 °F - -0.4 °F 11% 30.32 in 10.0 mi North 5.8 mph 18.4 mph N/A   Clear
4:15 PM 51.8 °F - -0.4 °F 12% 30.31 in 10.0 mi NNE 10.4 mph 17.3 mph N/A   Clear
4:35 PM 53.6 °F - -0.4 °F 11% 30.31 in 10.0 mi NNE 11.5 mph 18.4 mph N/A   Clear
4:55 PM 51.8 °F - -0.4 °F 12% 30.32 in 10.0 mi NNW 13.8 mph 20.7 mph N/A   Clear
5:15 PM 51.8 °F - -2.2 °F 11% 30.31 in 10.0 mi North 11.5 mph 20.7 mph N/A   Clear
5:35 PM 50.0 °F - -2.2 °F 12% 30.32 in 10.0 mi North 12.7 mph 19.6 mph N/A   Clear
5:55 PM 50.0 °F - -4.0 °F 11% 30.32 in 10.0 mi NNW 15.0 mph 20.7 mph N/A   Clear
6:15 PM 50.0 °F - -4.0 °F 11% 30.33 in 10.0 mi NNW 15.0 mph 20.7 mph N/A   Clear
6:35 PM 50.0 °F - -4.0 °F 11% 30.33 in 10.0 mi North 9.2 mph 16.1 mph N/A   Clear
6:55 PM 48.2 °F - -2.2 °F 12% 30.33 in 10.0 mi North 12.7 mph - N/A   Clear
7:15 PM 48.2 °F - -4.0 °F 11% 30.33 in 10.0 mi North 10.4 mph - N/A   Clear
7:35 PM 46.4 °F 42.4 °F -2.2 °F 13% 30.33 in 10.0 mi North 8.1 mph - N/A   Clear
7:55 PM 44.6 °F 40.2 °F -0.4 °F 15% 30.34 in 10.0 mi North 8.1 mph - N/A   Clear
8:15 PM 42.8 °F 38.6 °F -0.4 °F 16% 30.34 in 10.0 mi North 6.9 mph - N/A   Clear
8:35 PM 41.0 °F 37.1 °F 1.4 °F 19% 30.36 in 10.0 mi NNW 5.8 mph - N/A   Clear
8:55 PM 41.0 °F - -0.4 °F 18% 30.37 in 10.0 mi Calm Calm - N/A   Clear
9:15 PM 39.2 °F - -0.4 °F 19% 30.37 in 10.0 mi Calm Calm - N/A   Clear
9:35 PM 37.4 °F - 1.4 °F 22% 30.37 in 10.0 mi Calm Calm - N/A   Clear
9:55 PM 35.6 °F 31.7 °F 1.4 °F 24% 30.38 in 10.0 mi NW 4.6 mph - N/A   Clear
10:15 PM 35.6 °F 29.9 °F 1.4 °F 24% 30.39 in 10.0 mi NW 6.9 mph - N/A   Clear
10:35 PM 35.6 °F 30.7 °F 1.4 °F 24% 30.39 in 10.0 mi NW 5.8 mph - N/A   Clear
10:55 PM 33.8 °F 29.6 °F 3.2 °F 28% 30.39 in 10.0 mi NW 4.6 mph - N/A   Clear
11:15 PM 33.8 °F 29.6 °F 3.2 °F 28% 30.38 in 10.0 mi NW 4.6 mph - N/A   Clear
11:35 PM 32.0 °F 27.5 °F 3.2 °F 30% 30.38 in 10.0 mi WNW 4.6 mph - N/A   Clear
11:55 PM 32.0 °F 27.5 °F 5.0 °F 32% 30.37 in 10.0 mi WNW 4.6 mph - N/A   Clear